sat.trackr.live / text

‹ back to catalog

STARLINK-33872

NORAD 64189 · 2025-113V

PAYLOAD ACTIVE UNKNOWN

§ Identity

Operator
Country
US
Launch date
2025-05-28
Launch site
AFETR
Launch vehicle
Mass (kg)
RCS (m²)

Purposes: comms

External: N2YO · Heavens-Above · Gunter

§ Orbital elements

Epoch: 2026-05-25T02:54:33.879744Z

Period
93.85 min
Inclination
53.1595°
Eccentricity
0.0001191
Mean motion
15.34398572 rev/d
Perigee alt
461.9 km
Apogee alt
463.5 km
Semi-major
6,840.8 km
B*
7.7627e-4
RAAN
94.9389°
Arg perigee
82.7356°
Mean anomaly
277.3782°
Rev number
5,674

§ Raw data

STARLINK-338721 64189U 25113V   26145.12122546  .00025941  00000+0  77627-3 0  99932 64189  53.1595  94.9389 0001191  82.7356 277.3782 15.34398572 56748

JSON: /api/v1/satellites/64189 · /tle

For live sub-satellite position, see the globe view (requires WebGL).

§ Visibility from observer

Set your observer location to see the next 7 days of passes ≥ 10°. The values pass through the URL so the page stays shareable.

No JS? Fill the form by hand. The geolocation button needs JavaScript.